Weather History for Fort Rucker / Ozark, AL

Change the Weather History Date:

Sunday, February 2, 2014

  Actual Average (KOZR) Record (KOZR)
Temperature  
Mean Temperature 64 °F -  
Max Temperature 75 °F 57 °F 76 °F (2014)
Min Temperature 52 °F 38 °F 29 °F (2008)
Degree Days  
Heating Degree Days 2    
Growing Degree Days 14 (Base 50)    
Moisture  
Dew Point 57 °F    
Average Humidity 87    
Maximum Humidity 100    
Minimum Humidity 50    
Precipitation  
Precipitation 0.01 in - - ()
Sea Level Pressure  
Sea Level Pressure 29.96 in    
Wind  
Wind Speed 5 mph (SE)    
Max Wind Speed 12 mph    
Max Gust Speed 20 mph    
Visibility 7 miles    
Events Fog    
Averages and records for this station are not official NWS values.
T = Trace of Precipitation, MM = Missing Value Source: NWS Daily Summary

Daily Weather History Graph

Daily Weather History Graph

Search for Another Location

Airport:

Trip Planner

Search our weather history database for the weather conditions in past years. The results will help you decide how hot, cold, wet, or windy it might be!

Date:

Astronomy

Feb. 02, 2014 Rise Set
Actual Time 6:34 AM CST 5:18 PM CST
Civil Twilight 6:09 AM CST 5:44 PM CST
Nautical Twilight 5:40 AM CST 6:13 PM CST
Astronomical Twilight 5:11 AM CST 6:41 PM CST
Moon 8:15 AM CST (2/2) 8:44 PM CST (2/2)
Length of Visible Light 11h 34m
Length of Day
10h 44m
Waxing Crescent, 11% of the Moon is Illuminated
Feb 2
Waxing Crescent
Feb 6
First Quarter
Feb 14
Full
Feb 22
Last Quarter
Mar 1
New

Hourly Weather History & Observations

Time (CST) Temp. Dew Point Humidity Pressure Visibility Wind Dir Wind Speed Gust Speed Precip Events Conditions
12:53 AM 53.1 °F 52.0 °F 96% 30.08 in 0.2 mi East 4.6 mph - N/A Fog Fog
1:53 AM 52.0 °F 52.0 °F 100% 30.08 in 0.2 mi ENE 3.5 mph - 0.01 in Fog Fog
2:53 AM 52.0 °F 52.0 °F 100% 30.08 in 0.2 mi Calm Calm - N/A Fog Fog
3:53 AM 53.1 °F 52.0 °F 96% 30.07 in 0.2 mi East 5.8 mph - N/A Fog Fog
4:53 AM 53.1 °F 53.1 °F 100% 30.07 in 0.2 mi Calm Calm - N/A Fog Fog
5:53 AM 53.1 °F 53.1 °F 100% 30.08 in 0.2 mi East 4.6 mph - N/A Fog Fog
6:53 AM 53.1 °F 53.1 °F 100% 30.09 in 0.2 mi East 3.5 mph - N/A Fog Fog
7:53 AM 53.1 °F 53.1 °F 100% 30.09 in 0.5 mi ESE 3.5 mph - N/A Fog Fog
8:04 AM 53.6 °F 53.6 °F 100% 30.13 in 1.0 mi ESE 4.6 mph - N/A   Overcast
8:26 AM 53.6 °F 53.6 °F 100% 30.14 in 2.5 mi Calm Calm - N/A   Overcast
8:34 AM 53.6 °F 53.6 °F 100% 30.14 in 3.0 mi Calm Calm - N/A   Overcast
8:53 AM 55.0 °F 55.0 °F 100% 30.10 in 4.0 mi ESE 3.5 mph - N/A   Overcast
9:53 AM 57.9 °F 55.9 °F 93% 30.11 in 10.0 mi South 3.5 mph - N/A   Overcast
10:12 AM 60.8 °F 55.4 °F 82% 30.14 in 10.0 mi SSE 5.8 mph - N/A   Overcast
10:19 AM 60.8 °F 57.2 °F 88% 30.13 in 10.0 mi ESE 6.9 mph - N/A   Overcast
10:53 AM 64.0 °F 57.0 °F 78% 30.08 in 10.0 mi SE 8.1 mph - N/A   Mostly Cloudy
11:53 AM 66.9 °F 57.0 °F 70% 30.05 in 10.0 mi SSE 8.1 mph - N/A   Overcast
12:53 PM 71.1 °F 55.9 °F 59% 29.72 in 10.0 mi SSE 8.1 mph - N/A   Mostly Cloudy
1:53 PM 75.9 °F 55.9 °F 50% 29.68 in 10.0 mi SSE 11.5 mph - N/A   Scattered Clouds
2:53 PM 73.9 °F 55.9 °F 53% 29.66 in 10.0 mi SSE 11.5 mph 19.6 mph N/A   Mostly Cloudy
3:53 PM 73.0 °F 60.1 °F 64% 29.67 in 10.0 mi South 9.2 mph - N/A   Overcast
4:53 PM 71.1 °F 60.1 °F 68% 29.68 in 10.0 mi SSE 4.6 mph - N/A   Overcast
5:53 PM 69.1 °F 61.0 °F 75% 29.69 in 10.0 mi SSE 4.6 mph - N/A   Mostly Cloudy
6:53 PM 66.9 °F 62.1 °F 84% 29.97 in 10.0 mi SSE 6.9 mph - N/A   Mostly Cloudy
7:24 PM 66.2 °F 62.6 °F 88% 30.01 in 10.0 mi South 5.8 mph - N/A   Overcast
7:53 PM 66.0 °F 62.1 °F 87% 29.96 in 10.0 mi SSE 8.1 mph - N/A   Overcast
8:28 PM 66.2 °F 62.6 °F 88% 30.00 in 10.0 mi South 5.8 mph - N/A   Scattered Clouds
8:53 PM 64.9 °F 62.1 °F 90% 29.97 in 10.0 mi South 5.8 mph - N/A   Scattered Clouds
9:02 PM 64.4 °F 62.6 °F 94% 30.00 in 10.0 mi South 6.9 mph - N/A   Mostly Cloudy
9:53 PM 64.9 °F 62.1 °F 90% 29.68 in 10.0 mi South 8.1 mph 17.3 mph N/A   Overcast
10:53 PM 64.9 °F 62.1 °F 90% 29.67 in 10.0 mi South 8.1 mph - N/A   Overcast
11:53 PM 64.9 °F 62.1 °F 90% 29.67 in 10.0 mi Variable 5.8 mph - N/A   Overcast